Location: *
(46.0770°N, 1.6444°E)
Time: 01:08:28
(UTC+00:00)

Meteor 1-4 Rocket - Pass Details

Date: 16 September 2019
Orbit: 449 x 504 km, 81.2° (Epoch: 22 October)

Event Time Altitude Azimuth Distance (km) Brightness Sun altitude
Rises 19:08:53 0° 3° (N) 2,537 6.4 -11.9°
Reaches altitude 10° 19:11:28 10° 22° (NNE) 1,642 5.2 -12.4°
Maximum altitude 19:14:05 19° 69° (ENE) 1,180 4.1 -12.8°
Enters shadow 19:14:29 19° 78° (ENE) 1,191 4.0 -12.9°
